Simultaneous Nadir Overpasses (SNOs) Predictions

Prediction of SNOs between AURA and NPP Satellite Orbit:

Table of predicted SNOs for the next 14.0 days since TLE Epoch: 3/2/2012
Index Date (AURA) Time (AURA) AURA Lat,Lon Date (NPP) Time (NPP) NPP Lat,Lon Distance(km) Time Diff (sec)
1 03/05/2012 03:41:18 79.86, 24.22 03/05/2012 03:40:42 79.87, 24.32 2.04 36
2 03/05/2012 04:30:40 -80.01,-166.95 03/05/2012 04:31:22 -80.00,-167.01 1.23 42
3 03/07/2012 19:57:58 79.91, 140.41 03/07/2012 19:57:35 79.91, 140.51 2.05 23
4 03/07/2012 20:47:22 -80.02, -51.01 03/07/2012 20:48:17 -80.02, -51.11 1.95 55
5 03/10/2012 12:14:47 79.86,-104.14 03/10/2012 12:14:32 79.86,-104.21 1.34 15
6 03/10/2012 13:04:08 -80.08, 65.34 03/10/2012 13:05:10 -80.08, 65.36 0.38 62
7 03/13/2012 04:31:40 79.87, 11.70 03/13/2012 04:31:27 79.87, 11.62 1.64 13
8 03/13/2012 05:21:01 -80.09,-178.78 03/13/2012 05:22:05 -80.09,-178.81 0.75 64
9 03/15/2012 20:48:36 79.93, 127.94 03/15/2012 20:48:19 79.93, 128.00 1.16 17




NCC Satellite Simultaneous Nadir Overpasses (SNOs) Prediction Service
